.
WxDataArchive / Data Records for 2007-01-24
2007-01-23 January 2007 2007-01-25

Data Records for Wednesday, 24 January 2007

Time	Temp	Chill	HIndex	Humid	Dewpt	 Wind 	HiWind	WindDir	Rain 	Barom 
-----	----	-----	------	-----	-----	------	------	-------	-----	----- 
00:00	28.1	28.1	28.1	78	22.1	0	2	0	0.00	29.972 
00:05	28.1	28.1	28.1	78	22.1	1	2	292	0.00	29.972 
00:10	28.1	28.1	28.1	78	22.1	0	2	292	0.00	29.973 
00:15	28.1	28.1	28.1	78	22.1	0	2	292	0.00	29.976 
00:20	28.1	28.1	28.1	77	21.8	0	1	292	0.00	29.976 
00:25	28.1	28.1	28.1	77	21.8	0	1	292	0.00	29.982 
00:30	28.1	28.1	28.1	77	21.8	0	2	292	0.00	29.985 
00:35	27.9	27.9	27.9	77	21.6	0	1	292	0.00	29.986 
00:40	27.9	27.9	27.9	77	21.6	0	2	292	0.00	29.986 
00:45	27.9	27.9	27.9	77	21.6	0	2	292	0.00	29.986 
00:50	27.9	27.9	27.9	77	21.6	0	1	292	0.00	29.986 
00:55	27.9	27.9	27.9	77	21.6	0	0	---	0.00	29.986 
01:00	27.9	27.9	27.9	77	21.6	0	2	292	0.00	29.986 
01:05	27.9	27.9	27.9	77	21.6	0	1	292	0.00	29.986 
01:10	27.8	27.8	27.8	77	21.5	0	1	292	0.00	29.987 
01:15	27.8	27.8	27.8	77	21.5	0	2	292	0.00	29.985 
01:20	27.8	27.8	27.8	77	21.5	0	2	292	0.00	29.982 
01:25	27.8	27.8	27.8	77	21.5	0	4	0	0.00	29.982 
01:30	27.6	27.6	27.6	77	21.4	0	1	0	0.00	29.981 
01:35	27.6	27.6	27.6	77	21.4	0	2	338	0.00	29.981 
01:40	27.6	27.6	27.6	77	21.4	0	1	338	0.00	29.979 
01:45	27.6	27.6	27.6	77	21.4	0	1	338	0.00	29.978 
01:50	27.6	27.6	27.6	78	21.7	0	2	315	0.00	29.978 
01:55	27.6	27.6	27.6	78	21.7	0	1	315	0.00	29.979 
02:00	27.5	27.5	27.5	78	21.6	0	2	248	0.00	29.977 
02:05	27.5	27.5	27.5	78	21.6	0	1	248	0.00	29.977 
02:10	27.5	27.5	27.5	78	21.6	0	2	248	0.00	29.977 
02:15	27.5	27.5	27.5	78	21.6	0	1	248	0.00	29.980 
02:20	27.5	27.5	27.5	79	21.9	0	1	248	0.00	29.982 
02:25	27.5	27.5	27.5	79	21.9	0	1	248	0.00	29.981 
02:30	27.5	27.5	27.5	79	21.9	0	1	248	0.00	29.981 
02:35	27.5	27.5	27.5	79	21.9	0	3	315	0.00	29.980 
02:40	27.3	27.3	27.3	79	21.7	0	2	270	0.00	29.983 
02:45	27.3	27.3	27.3	79	21.7	0	1	270	0.00	29.980 
02:50	27.3	27.3	27.3	79	21.7	0	1	270	0.00	29.976 
02:55	27.3	27.3	27.3	79	21.7	0	2	270	0.00	29.974 
03:00	27.3	27.3	27.3	79	21.7	0	3	270	0.00	29.971 
03:05	27.3	27.3	27.3	79	21.7	0	1	270	0.00	29.971 
03:10	27.3	27.3	27.3	79	21.7	0	1	292	0.00	29.973 
03:15	27.3	27.3	27.3	80	22.0	0	1	292	0.00	29.974 
03:20	27.3	27.3	27.3	80	22.0	0	1	292	0.00	29.977 
03:25	27.3	27.3	27.3	79	21.7	0	1	292	0.00	29.978 
03:30	27.2	27.2	27.2	79	21.6	0	2	292	0.00	29.978 
03:35	27.2	27.2	27.2	78	21.3	0	1	315	0.00	29.975 
03:40	27.2	27.2	27.2	78	21.3	0	3	292	0.00	29.972 
03:45	27.2	27.2	27.2	78	21.3	0	1	292	0.00	29.972 
03:50	27.2	27.2	27.2	78	21.3	0	1	292	0.00	29.973 
03:55	27.2	27.2	27.2	78	21.3	0	1	292	0.00	29.973 
04:00	27.2	27.2	27.2	78	21.3	0	1	292	0.00	29.974 
04:05	27.2	27.2	27.2	78	21.3	0	2	292	0.00	29.973 
04:10	27.2	27.2	27.2	78	21.3	0	1	292	0.00	29.973 
04:15	27.2	27.2	27.2	78	21.3	0	1	292	0.00	29.977 
04:20	27.2	27.2	27.2	78	21.3	0	0	---	0.00	29.982 
04:25	27.2	27.2	27.2	78	21.3	0	1	292	0.00	29.978 
04:30	27.2	27.2	27.2	78	21.3	0	1	292	0.00	29.977 
04:35	27.2	27.2	27.2	79	21.6	0	1	292	0.00	29.976 
04:40	27.2	27.2	27.2	78	21.3	0	1	292	0.00	29.978 
04:45	27.2	27.2	27.2	78	21.3	0	0	---	0.00	29.976 
04:50	27.2	27.2	27.2	78	21.3	0	0	---	0.00	29.977 
04:55	27.2	27.2	27.2	79	21.6	0	1	315	0.00	29.977 
05:00	27.2	27.2	27.2	78	21.3	0	1	292	0.00	29.978 
05:05	27.2	27.2	27.2	78	21.3	0	0	---	0.00	29.981 
05:10	27.2	27.2	27.2	78	21.3	0	1	292	0.00	29.984 
05:15	27.2	27.2	27.2	79	21.6	0	1	292	0.00	29.986 
05:20	27.2	27.2	27.2	79	21.6	0	0	---	0.00	29.987 
05:25	27.2	27.2	27.2	79	21.6	0	0	---	0.00	29.989 
05:30	27.2	27.2	27.2	79	21.6	0	0	---	0.00	29.991 
05:35	27.2	27.2	27.2	80	21.9	0	0	---	0.00	29.997 
05:40	27.2	27.2	27.2	80	21.9	0	0	---	0.00	29.996 
05:45	27.2	27.2	27.2	80	21.9	0	0	---	0.00	30.002 
05:50	27.2	27.2	27.2	80	21.9	0	0	---	0.00	30.004 
05:55	27.2	27.2	27.2	80	21.9	0	0	---	0.00	30.005 
06:00	27.2	27.2	27.2	80	21.9	0	0	---	0.00	30.005 
06:05	27.2	27.2	27.2	80	21.9	0	0	---	0.00	30.008 
06:10	27.2	27.2	27.2	80	21.9	0	0	---	0.00	30.011 
06:15	27.2	27.2	27.2	80	21.9	0	1	292	0.00	30.016 
06:20	27.2	27.2	27.2	80	21.9	0	0	---	0.00	30.018 
06:25	27.2	27.2	27.2	80	21.9	0	1	292	0.00	30.017 
06:30	27.2	27.2	27.2	80	21.9	0	0	---	0.00	30.017 
06:35	27.2	27.2	27.2	80	21.9	0	0	---	0.00	30.016 
06:40	27.2	27.2	27.2	80	21.9	0	0	---	0.00	30.016 
06:45	27.2	27.2	27.2	80	21.9	0	0	---	0.00	30.016 
06:50	27.2	27.2	27.2	80	21.9	0	0	---	0.00	30.015 
06:55	27.2	27.2	27.2	80	21.9	0	0	---	0.00	30.018 
07:00	27.2	27.2	27.2	80	21.9	0	0	---	0.00	30.018 
07:05	27.2	27.2	27.2	80	21.9	0	0	---	0.00	30.020 
07:10	27.2	27.2	27.2	80	21.9	0	0	---	0.00	30.024 
07:15	27.2	27.2	27.2	80	21.9	0	0	---	0.00	30.026 
07:20	27.2	27.2	27.2	80	21.9	0	0	---	0.00	30.031 
07:25	27.2	27.2	27.2	80	21.9	0	0	---	0.00	30.034 
07:30	27.2	27.2	27.2	80	21.9	0	0	---	0.00	30.034 
07:35	27.2	27.2	27.2	80	21.9	0	0	---	0.00	30.034 
07:40	27.2	27.2	27.2	80	21.9	0	1	292	0.00	30.033 
07:45	27.2	27.2	27.2	80	21.9	0	1	292	0.00	30.033 
07:50	27.2	27.2	27.2	80	21.9	0	1	292	0.00	30.026 
07:55	27.0	27.0	27.0	80	21.7	0	1	292	0.00	30.019 
08:00	26.9	26.9	26.9	80	21.6	0	1	292	0.00	30.015 
08:05	26.6	26.6	26.6	80	21.3	0	0	---	0.00	30.015 
08:10	26.1	26.1	26.1	80	20.8	0	0	---	0.00	30.018 
08:15	25.8	25.8	25.8	80	20.5	0	0	---	0.00	30.021 
08:20	25.6	25.6	25.6	81	20.6	0	0	---	0.00	30.032 
08:25	25.4	25.4	25.4	81	20.4	0	0	---	0.00	30.032 
08:30	25.3	25.3	25.3	82	20.6	0	0	---	0.00	30.034 
08:35	25.3	25.3	25.3	82	20.6	0	0	---	0.00	30.036 
08:40	25.3	25.3	25.3	82	20.6	0	0	---	0.00	30.037 
08:45	25.3	25.3	25.3	82	20.6	0	0	---	0.00	30.036 
08:50	25.3	25.3	25.3	82	20.6	0	0	---	0.00	30.037 
08:55	25.1	25.1	25.1	82	20.4	0	0	---	0.00	30.036 
09:00	25.1	25.1	25.1	82	20.4	0	0	---	0.00	30.037 
09:05	25.3	25.3	25.3	82	20.6	0	0	---	0.00	30.041 
09:10	25.4	25.4	25.4	82	20.7	0	0	---	0.00	30.042 
09:15	25.6	25.6	25.6	82	20.9	0	0	---	0.00	30.045 
09:20	25.8	25.8	25.8	82	21.1	0	1	292	0.00	30.050 
09:25	26.0	26.0	26.0	81	21.0	0	0	---	0.00	30.051 
09:30	26.4	26.4	26.4	81	21.4	0	0	---	0.00	30.050 
09:35	26.9	26.9	26.9	80	21.6	0	1	292	0.00	30.048 
09:40	27.3	27.3	27.3	80	22.0	0	2	292	0.00	30.044 
09:45	27.9	27.9	27.9	79	22.2	1	3	270	0.00	30.037 
09:50	28.2	28.2	28.2	78	22.2	0	2	248	0.00	30.039 
09:55	28.4	28.4	28.4	77	22.1	0	3	248	0.00	30.040 
10:00	28.4	28.4	28.4	77	22.1	1	2	248	0.00	30.037 
10:05	28.4	28.4	28.4	77	22.1	1	3	248	0.00	30.041 
10:10	28.5	28.5	28.5	77	22.2	1	3	270	0.00	30.041 
10:15	28.7	28.7	28.7	77	22.4	1	4	225	0.00	30.044 
10:20	29.0	29.0	29.0	77	22.7	1	3	248	0.00	30.048 
10:25	29.1	29.1	29.1	76	22.5	1	5	248	0.00	30.047 
10:30	29.1	29.1	29.1	75	22.2	1	3	248	0.00	30.047 
10:35	29.3	29.3	29.3	75	22.4	1	3	248	0.00	30.048 
10:40	29.1	29.1	29.1	75	22.2	1	4	248	0.00	30.049 
10:45	29.4	29.4	29.4	76	22.8	1	3	248	0.00	30.051 
10:50	29.7	29.7	29.7	74	22.4	1	3	248	0.00	30.054 
10:55	29.7	29.7	29.7	74	22.4	1	3	270	0.00	30.056 
11:00	29.5	29.5	29.5	75	22.6	2	4	248	0.00	30.058 
11:05	29.7	29.7	29.7	75	22.8	1	4	248	0.00	30.058 
11:10	29.7	29.7	29.7	73	22.1	1	4	248	0.00	30.058 
11:15	29.7	29.7	29.7	73	22.1	2	5	248	0.00	30.059 
11:20	29.7	29.7	29.7	73	22.1	2	4	270	0.00	30.057 
11:25	29.8	29.8	29.8	73	22.2	2	4	248	0.00	30.058 
11:30	29.8	29.8	29.8	73	22.2	2	5	270	0.00	30.063 
11:35	29.7	29.7	29.7	73	22.1	2	5	248	0.00	30.062 
11:40	29.8	29.8	29.8	73	22.2	1	4	248	0.00	30.061 
11:45	29.8	29.8	29.8	72	21.9	2	5	248	0.00	30.061 
11:50	30.0	30.0	30.0	72	22.1	2	6	270	0.00	30.061 
11:55	29.8	29.8	29.8	73	22.2	2	9	248	0.00	30.058 
12:00	29.8	29.8	29.8	73	22.2	2	7	270	0.00	30.056 
12:05	29.8	29.8	29.8	74	22.5	2	6	248	0.00	30.055 
12:10	29.5	29.5	29.5	76	22.9	1	3	270	0.00	30.054 
12:15	29.3	29.3	29.3	77	23.0	1	4	248	0.00	30.054 
12:20	29.1	29.1	29.1	79	23.4	1	5	270	0.00	30.055 
12:25	28.8	28.8	28.8	81	23.7	1	3	248	0.00	30.053 
12:30	28.8	28.8	28.8	82	24.0	2	6	248	0.00	30.052 
12:35	28.7	28.7	28.7	82	23.9	1	5	248	0.00	30.052 
12:40	28.5	28.5	28.5	83	24.0	1	5	248	0.00	30.051 
12:45	28.4	28.4	28.4	84	24.2	1	6	248	0.00	30.051 
12:50	28.4	28.4	28.4	84	24.2	2	5	248	0.00	30.050 
12:55	28.4	28.4	28.4	84	24.2	2	6	248	0.00	30.049 
13:00	28.2	28.2	28.2	84	24.0	2	7	248	0.00	30.044 
13:05	28.2	28.2	28.2	85	24.3	1	5	248	0.00	30.041 
13:10	28.2	28.2	28.2	85	24.3	1	4	270	0.00	30.043 
13:15	28.2	28.2	28.2	85	24.3	1	4	248	0.00	30.045 
13:20	28.2	28.2	28.2	84	24.0	3	9	270	0.00	30.042 
13:25	28.2	28.2	28.2	83	23.7	2	5	248	0.00	30.040 
13:30	28.4	28.4	28.4	83	23.9	1	5	270	0.00	30.041 
13:35	28.5	28.5	28.5	83	24.0	2	6	248	0.00	30.039 
13:40	28.5	28.5	28.5	81	23.4	2	6	270	0.00	30.038 
13:45	28.7	28.7	28.7	81	23.6	1	3	270	0.00	30.036 
13:50	28.7	28.7	28.7	80	23.3	2	6	270	0.00	30.038 
13:55	28.8	28.8	28.8	79	23.1	1	3	248	0.00	30.038 
14:00	28.8	28.8	28.8	79	23.1	2	3	270	0.00	30.037 
14:05	28.8	28.8	28.8	79	23.1	1	3	248	0.00	30.037 
14:10	28.8	28.8	28.8	78	22.8	2	3	248	0.00	30.037 
14:15	29.0	29.0	29.0	77	22.7	2	5	270	0.00	30.036 
14:20	29.0	29.0	29.0	77	22.7	2	5	270	0.00	30.036 
14:25	29.0	29.0	29.0	77	22.7	2	4	270	0.00	30.037 
14:30	28.8	28.8	28.8	77	22.5	2	4	270	0.00	30.039 
14:35	29.0	29.0	29.0	77	22.7	2	9	270	0.00	30.037 
14:40	28.8	28.8	28.8	76	22.2	3	9	270	0.00	30.039 
14:45	28.8	28.8	28.8	76	22.2	2	5	270	0.00	30.040 
14:50	28.8	28.8	28.8	76	22.2	2	4	270	0.00	30.042 
14:55	29.0	29.0	29.0	76	22.4	2	3	270	0.00	30.045 
15:00	29.0	29.0	29.0	76	22.4	2	4	248	0.00	30.045 
15:05	29.0	29.0	29.0	76	22.4	2	5	248	0.00	30.048 
15:10	29.1	29.1	29.1	76	22.5	2	4	270	0.00	30.048 
15:15	29.1	29.1	29.1	75	22.2	2	7	270	0.00	30.047 
15:20	29.0	29.0	29.0	76	22.4	2	6	270	0.00	30.045 
15:25	29.0	29.0	29.0	76	22.4	2	6	270	0.00	30.042 
15:30	28.8	28.8	28.8	76	22.2	2	5	270	0.00	30.043 
15:35	28.5	28.5	28.5	76	21.9	3	9	270	0.00	30.049 
15:40	28.4	28.4	28.4	77	22.1	3	8	248	0.00	30.049 
15:45	28.4	28.4	28.4	78	22.4	2	7	248	0.00	30.046 
15:50	28.4	28.4	28.4	78	22.4	2	5	270	0.00	30.042 
15:55	28.2	28.2	28.2	78	22.2	2	4	248	0.00	30.041 
16:00	28.2	28.2	28.2	77	21.9	3	11	270	0.00	30.044 
16:05	28.2	28.2	28.2	77	21.9	2	5	248	0.00	30.045 
16:10	28.5	28.5	28.5	76	21.9	3	11	248	0.00	30.046 
16:15	28.5	28.5	28.5	75	21.6	3	10	248	0.00	30.047 
16:20	28.4	28.4	28.4	75	21.5	3	6	270	0.00	30.048 
16:25	28.4	28.4	28.4	75	21.5	3	5	248	0.00	30.045 
16:30	28.4	28.4	28.4	75	21.5	3	6	248	0.00	30.042 
16:35	28.4	28.4	28.4	75	21.5	2	6	248	0.00	30.041 
16:40	28.4	28.4	28.4	74	21.2	2	6	248	0.00	30.041 
16:45	28.4	28.4	28.4	75	21.5	1	4	248	0.00	30.040 
16:50	28.4	28.4	28.4	75	21.5	1	5	248	0.00	30.040 
16:55	28.4	28.4	28.4	74	21.2	2	6	248	0.00	30.039 
17:00	28.2	28.2	28.2	75	21.3	2	10	248	0.00	30.041 
17:05	28.2	28.2	28.2	73	20.7	2	4	248	0.00	30.045 
17:10	28.2	28.2	28.2	71	20.0	2	6	248	0.00	30.048 
17:15	28.2	28.2	28.2	70	19.7	2	5	248	0.00	30.049 
17:20	28.2	28.2	28.2	70	19.7	2	5	270	0.00	30.051 
17:25	28.2	28.2	28.2	69	19.4	2	5	292	0.00	30.052 
17:30	28.1	28.1	28.1	70	19.6	1	3	270	0.00	30.052 
17:35	27.9	27.9	27.9	70	19.4	1	5	270	0.00	30.053 
17:40	27.8	27.8	27.8	69	19.0	3	6	270	0.00	30.054 
17:45	27.6	27.6	27.6	69	18.8	2	5	270	0.00	30.055 
17:50	27.6	27.6	27.6	70	19.1	2	5	248	0.00	30.055 
17:55	27.5	27.5	27.5	71	19.4	1	5	248	0.00	30.059 
18:00	27.3	27.3	27.3	72	19.5	2	6	248	0.00	30.060 
18:05	27.3	27.3	27.3	71	19.2	2	9	270	0.00	30.063 
18:10	27.2	27.2	27.2	70	18.7	3	6	270	0.00	30.063 
18:15	27.2	27.2	27.2	70	18.7	2	5	270	0.00	30.063 
18:20	27.0	27.0	27.0	69	18.2	3	6	270	0.00	30.065 
18:25	27.0	27.0	27.0	69	18.2	2	5	270	0.00	30.066 
18:30	26.9	26.9	26.9	69	18.1	2	5	270	0.00	30.065 
18:35	26.9	26.9	26.9	69	18.1	2	5	270	0.00	30.068 
18:40	26.9	26.9	26.9	69	18.1	1	4	270	0.00	30.067 
18:45	26.7	26.7	26.7	69	17.9	1	3	248	0.00	30.065 
18:50	26.3	26.3	26.3	69	17.5	1	5	270	0.00	30.068 
18:55	26.0	26.0	26.0	70	17.6	2	4	270	0.00	30.072 
19:00	25.8	25.8	25.8	71	17.7	1	3	270	0.00	30.072 
19:05	25.6	25.6	25.6	72	17.8	1	4	270	0.00	30.072 
19:10	25.6	25.6	25.6	73	18.2	1	3	270	0.00	30.072 
19:15	25.6	25.6	25.6	73	18.2	1	3	270	0.00	30.070 
19:20	25.6	25.6	25.6	73	18.2	1	5	248	0.00	30.069 
19:25	25.6	25.6	25.6	73	18.2	1	3	248	0.00	30.069 
19:30	25.6	25.6	25.6	73	18.2	1	4	248	0.00	30.071 
19:35	25.6	25.6	25.6	73	18.2	1	3	270	0.00	30.072 
19:40	25.6	25.6	25.6	74	18.5	1	2	270	0.00	30.072 
19:45	25.4	25.4	25.4	74	18.3	1	3	248	0.00	30.073 
19:50	25.6	25.6	25.6	73	18.2	1	3	270	0.00	30.074 
19:55	25.4	25.4	25.4	72	17.7	1	3	248	0.00	30.073 
20:00	25.4	25.4	25.4	72	17.7	2	4	270	0.00	30.074 
20:05	25.6	25.6	25.6	71	17.5	1	5	270	0.00	30.077 
20:10	25.4	25.4	25.4	71	17.3	1	3	292	0.00	30.076 
20:15	25.4	25.4	25.4	71	17.3	1	3	292	0.00	30.075 
20:20	25.4	25.4	25.4	71	17.3	1	4	248	0.00	30.074 
20:25	25.3	25.3	25.3	71	17.2	1	3	270	0.00	30.075 
20:30	25.3	25.3	25.3	71	17.2	1	3	338	0.00	30.075 
20:35	25.3	25.3	25.3	69	16.6	1	3	270	0.00	30.074 
20:40	25.3	25.3	25.3	69	16.6	1	4	270	0.00	30.071 
20:45	25.3	25.3	25.3	69	16.6	1	3	225	0.00	30.067 
20:50	25.3	25.3	25.3	70	16.9	0	2	270	0.00	30.066 
20:55	25.1	25.1	25.1	69	16.4	1	4	270	0.00	30.067 
21:00	25.1	25.1	25.1	70	16.7	0	3	248	0.00	30.070 
21:05	25.1	25.1	25.1	69	16.4	1	3	248	0.00	30.068 
21:10	25.1	25.1	25.1	69	16.4	1	3	270	0.00	30.068 
21:15	25.1	25.1	25.1	70	16.7	1	4	248	0.00	30.067 
21:20	25.1	25.1	25.1	70	16.7	1	5	248	0.00	30.067 
21:25	25.1	25.1	25.1	70	16.7	1	4	270	0.00	30.066 
21:30	25.1	25.1	25.1	70	16.7	1	6	270	0.00	30.065 
21:35	25.1	25.1	25.1	70	16.7	1	3	270	0.00	30.062 
21:40	25.1	25.1	25.1	70	16.7	1	3	248	0.00	30.064 
21:45	25.1	25.1	25.1	71	17.0	1	4	248	0.00	30.066 
21:50	25.1	25.1	25.1	72	17.4	1	4	248	0.00	30.067 
21:55	25.1	25.1	25.1	73	17.7	1	4	248	0.00	30.068 
22:00	25.0	25.0	25.0	73	17.6	1	4	248	0.00	30.066 
22:05	25.0	25.0	25.0	73	17.6	1	4	248	0.00	30.064 
22:10	25.0	25.0	25.0	74	17.9	1	3	248	0.00	30.065 
22:15	24.8	24.8	24.8	74	17.7	1	4	248	0.00	30.066 
22:20	24.8	24.8	24.8	74	17.7	2	7	248	0.00	30.065 
22:25	24.7	24.7	24.7	75	17.9	1	4	248	0.00	30.064 
22:30	24.7	24.7	24.7	76	18.2	1	4	248	0.00	30.063 
22:35	24.7	24.7	24.7	76	18.2	2	5	248	0.00	30.064 
22:40	24.7	24.7	24.7	77	18.5	1	4	248	0.00	30.062 
22:45	24.5	24.5	24.5	77	18.3	1	3	248	0.00	30.062 
22:50	24.5	24.5	24.5	77	18.3	1	6	248	0.00	30.061 
22:55	24.5	24.5	24.5	77	18.3	1	4	270	0.00	30.066 
23:00	24.5	24.5	24.5	78	18.6	1	5	248	0.00	30.064 
23:05	24.5	24.5	24.5	79	18.9	2	9	248	0.00	30.065 
23:10	24.4	24.4	24.4	80	19.1	2	7	248	0.00	30.068 
23:15	24.2	24.2	24.2	80	18.9	1	4	248	0.00	30.069 
23:20	24.2	24.2	24.2	80	18.9	2	5	248	0.00	30.070 
23:25	24.2	24.2	24.2	80	18.9	2	6	270	0.00	30.070 
23:30	24.2	24.2	24.2	81	19.2	2	10	248	0.00	30.071 
23:35	24.2	24.2	24.2	81	19.2	2	9	248	0.00	30.071 
23:40	24.1	24.1	24.1	81	19.1	2	7	248	0.00	30.071 
23:45	24.1	24.1	24.1	81	19.1	2	9	248	0.00	30.070 
23:50	24.1	24.1	24.1	81	19.1	2	6	248	0.00	30.069 
23:55	24.1	24.1	24.1	81	19.1	2	6	248	0.00	30.068 

CoCoRaHS
IN-AL-39
A2 Web Hosting
Creative Commons License
GoDaddy
Look for:

loaded 2017-12-13 19:55:19 • last modified 2010-11-18 10:43:29
Privacy PolicyDisclaimer
• wx.awcolley.com is powered by PmWiki v.2002016 •
• all content (unless otherwise noted) © 2017 A W Colley